Date,TemperatureHighF,TemperatureAvgF,TemperatureLowF,DewpointHighF,DewpointAvgF,DewpointLowF,HumidityHigh,HumidityAvg,HumidityLow,PressureMaxIn,PressureMinIn,WindSpeedMaxMPH,WindSpeedAvgMPH,GustSpeedMaxMPH,PrecipitationSumIn
2013-7-1,83.0,72.6,61.0,64.0,57.2,48.0,97,61,31,30.24,30.06,18,8,44,0.00
2013-7-2,85.0,72.8,63.0,61.0,53.9,44.0,91,58,23,30.26,30.05,23,7,41,0.00
2013-7-3,89.0,76.0,65.0,61.0,53.8,45.0,88,51,22,30.21,29.94,21,6,34,0.00
2013-7-4,93.0,79.2,66.0,59.0,51.8,45.0,77,42,19,30.02,29.88,16,5,25,0.00
2013-7-5,97.0,84.4,68.0,57.0,47.5,37.0,63,31,13,30.00,29.83,12,6,25,0.00
2013-7-6,99.0,85.8,75.0,55.0,49.0,40.0,46,29,13,29.97,29.84,15,6,23,0.00
2013-7-7,100.0,87.9,75.0,58.0,49.1,43.0,54,28,14,30.04,29.90,18,7,26,0.00
2013-7-8,97.0,84.5,73.0,58.0,49.6,41.0,59,32,15,30.15,30.02,13,7,27,0.00
2013-7-9,97.0,85.3,71.0,58.0,51.3,44.0,63,33,18,30.19,30.00,15,6,24,0.00
2013-7-10,97.0,84.3,72.0,59.0,50.9,-99.9,62,35,19,30.18,29.98,15,7,24,0.00
2013-7-11,94.0,84.9,75.0,59.0,53.1,48.0,53,34,22,30.14,29.99,14,7,27,0.00
2013-7-12,97.0,82.8,72.0,65.0,54.6,45.0,64,41,17,30.08,29.94,17,6,29,0.00
2013-7-13,97.0,84.8,69.0,62.0,50.6,40.0,69,35,15,30.11,29.95,12,6,23,0.00
2013-7-14,100.0,87.3,70.0,57.0,46.1,40.0,48,25,14,30.09,29.88,20,8,33,0.00
2013-7-15,81.0,73.8,69.0,62.0,56.4,49.0,72,55,43,30.15,29.99,16,9,26,0.00
2013-7-16,83.0,73.0,63.0,53.0,49.0,45.0,69,44,27,30.21,30.09,14,7,21,0.00
2013-7-17,80.0,72.2,64.0,58.0,54.3,48.0,72,54,36,30.28,30.21,23,9,37,0.00
2013-7-18,73.0,67.8,63.0,64.0,62.1,58.0,94,82,69,30.28,30.12,11,5,18,0.00
2013-7-19,83.0,73.2,66.0,64.0,61.5,58.0,92,69,44,30.18,30.00,15,6,24,0.00
2013-7-20,88.0,75.7,66.0,63.0,59.2,-99.9,90,60,33,30.08,29.91,15,7,29,0.00
2013-7-21,93.0,79.6,67.0,64.0,57.4,48.0,87,52,21,30.05,29.91,12,4,23,0.00
2013-7-22,94.0,81.2,68.0,63.0,57.6,46.0,79,47,20,30.05,29.92,12,5,27,0.00
2013-7-23,94.0,80.1,68.0,66.0,59.9,52.0,80,53,26,30.07,29.92,17,5,30,0.00
2013-7-24,92.0,79.4,68.0,67.0,61.0,53.0,91,58,27,30.20,29.98,20,7,33,0.00
2013-7-25,85.0,74.4,64.0,66.0,63.0,57.0,96,70,38,30.22,30.09,9,4,15,0.00
2013-7-26,88.0,78.4,70.0,66.0,62.8,59.0,87,60,39,30.20,30.13,14,5,27,0.00
2013-7-27,79.0,69.9,62.0,67.0,63.8,61.0,99,82,58,30.29,30.04,23,4,42,0.00
2013-7-28,91.0,76.4,66.0,66.0,62.1,53.0,95,66,30,30.08,29.93,14,4,36,0.00
2013-7-29,94.0,82.5,67.0,65.0,56.9,47.0,88,45,20,30.10,30.02,10,4,17,0.00
2013-7-30,97.0,84.2,70.0,61.0,54.2,47.0,66,38,19,30.22,30.10,15,5,24,0.00
2013-7-31,97.0,84.1,71.0,61.0,53.8,45.0,71,38,16,30.24,30.10,16,6,26,0.00